OpenBCM V2.0.3 (Linux)

Packet Radio Mailbox

IZ3LSV

[San Dona' di P. JN]

 Login: GUEST





  
LU9DCE > KEP      08.12.19 19:00l 242 Lines 12002 Bytes #999 (0) @ WW
BID : 4766_LU9DCE
Read: GUEST
Subj: TLE 08 12
Path: IZ3LSV<IK6IHL<IK7NXU<HB9ON<IW8PGT<IR2UBX<EA2RCF<LU9DCE
Sent: 191208/1600Z 4766@LU9DCE.TOR.BA.ARG.SOAM LinBPQ6.0.19

            __    _  _  ___  ____   ___  ____    ____  ____  ____
           (  )  / )( \/ _ \(    \ / __)(  __)  (  _ \(  _ \/ ___)
           / (_/\) \/ (\__  )) D (( (__  ) _)    ) _ ( ) _ (\___ \
           \____/\____/(___/(____/ \___)(____)  (____/(____/(____/
               ESTACION DE PACKET RADIO - BUENOS AIRES (GF05OM)
                   BOLETINES INFORMATIVOS PROGRAMADOS (BIP)
                  SLACKWARE LINUX - HELLOCODELINUX@GMAIL.COM
+----------------------------------------------------------------------------+
OSCAR 7
1  7530U 74089B   19341.91797428 -.00000037 +00000-0 +49405-4 0  9995
2  7530 101.7713 307.9665 0012405 015.9854 045.9639 12.53641083061867
OSCAR 11 (UoSAT 2)
1 14781U 84021B   19341.80991735  .00000065  00000-0  14008-4 0  9994
2 14781  97.5999 358.2807 0009902 111.1164 249.1110 14.83125807924270
OSCAR 19 (LUSAT)
1 20442U 90005G   19341.79226296  .00000002  00000-0  17090-4 0  9990
2 20442  98.6685 283.6457 0011944   7.8149 352.3219 14.32939957561020
EYESAT A
1 22825U 93061C   19341.89708574 -.00000001 +00000-0 +17743-4 0  9992
2 22825 098.9163 334.5786 0007815 211.8688 148.2022 14.30072906366295
ITAMSAT
1 22826U 93061D   19341.92854881 -.00000006 +00000-0 +15681-4 0  9994
2 22826 098.9103 334.5809 0008523 200.0296 160.0552 14.30407307366521
RADIO ROSTO
1 23439U 94085A   19341.93024541 -.00000013 +00000-0 +83956-3 0  9992
2 23439 064.8136 197.5919 0145794 079.4816 282.2496 11.27569186027319
JAS 2
1 24278U 96046B   19341.84029131 -.00000026  00000-0  72806-5 0  9991
2 24278  98.5628 112.1198 0350793 153.6544 208.2916 13.53095206151088
TECHSAT 1B
1 25397U 98043D   19341.87754939 -.00000025 +00000-0 +85601-5 0  9993
2 25397 098.7072 280.0611 0000266 218.0218 142.0941 14.23675633112156
ISS (ZARYA)
1 25544U 98067A   19342.59651061  .00001431  00000-0  32995-4 0  9993
2 25544  51.6446 216.6396 0007486  12.3055  85.9369 15.50097742202310
PCSAT
1 26931U 01043C   19342.11813054 -.00000044  00000-0  15056-4 0  9991
2 26931  67.0516 278.7298 0007221 264.6015  95.4263 14.30560916949632
SAUDISAT 1C
1 27607U 02058C   19341.82802198 -.00000066  00000-0  11607-4 0  9995
2 27607  64.5551 243.3054 0070403 222.6541 136.9084 14.75593578912431
CUTE-1
1 27844U 03031E   19341.87862682 +.00000049 +00000-0 +42014-4 0  9995
2 27844 098.6838 347.5167 0008871 251.0444 108.9773 14.22209477852723
CUBESAT XI 4
1 27848U 03031J   19341.84960442  .00000038  00000-0  37272-4 0  9997
2 27848  98.6912 348.0213 0008701 264.4123  95.6062 14.21800477852608
MOZHAYETS 4
1 27939U 03042A   19342.43083193  .00000061  00000-0  19513-4 0  9999
2 27939  98.0637 115.1417 0011961 237.4583 122.5477 14.66822361865865
CUBESAT XI 5
1 28895U 05043F   19341.91578589 +.00000114 +00000-0 +30817-4 0  9993
2 28895 097.9828 119.0077 0017234 164.1397 196.0349 14.63718337752447
CUTE-1.7+APD II
1 32785U 08021C   19341.79527694 +.00000197 +00000-0 +26821-4 0  9993
2 32785 097.5589 333.4800 0014322 055.9974 304.2602 14.88385343629216
DELFI C3
1 32789U 08021G   19341.71113684  .00000588  00000-0  42938-4 0  9990
2 32789  97.4445  26.0204 0010668 254.0739 105.9314 15.07306600632876
SEEDS
1 32791U 08021J   19342.52935870  .00000286  00000-0  34289-4 0  9997
2 32791  97.5324 340.2901 0014027  28.2028 331.9948 14.90927347629863
YUBELEINY
1 32953U 08025A   19342.44344368  .00000021  00000-0  75656-4 0  9998
2 32953  82.5059  37.3276 0020301 112.5360 247.7865 12.43092670523772
PRISM (HITOMI)
1 33493U 09002B   19342.54497799  .00000788  00000-0  74288-4 0  9992
2 33493  98.1287 270.0965 0014457 335.7199  24.3339 14.96829798591008
KKS-1 (KISEKI)
1 33499U 09002H   19341.85963678 +.00000090 +00000-0 +21323-4 0  9993
2 33499 098.3342 185.9519 0009648 025.6592 334.5093 14.75485980584187
SWISSCUBE
1 35932U 09051B   19341.77643721  .00000118  00000-0  37713-4 0  9997
2 35932  98.5995 152.9614 0007601   6.2447 353.8843 14.56337192541829
BEESAT
1 35933U 09051C   19341.76924408  .00000088  00000-0  30968-4 0  9992
2 35933  98.6008 154.7786 0006100  21.4595 338.6857 14.56419699541933
ITUPSAT 1
1 35935U 09051E   19342.13273159  .00000093  00000-0  32522-4 0  9990
2 35935  98.6116 155.3768 0008332  15.6217 344.5235 14.55573039541728
XIWANG-1 (HOPE-1)
1 36122U 09072B   19342.19017960 -.00000043  00000-0 -25273-5 0  9997
2 36122 100.0805 336.5069 0007026 310.4133  49.6373 13.16352202479571
TISAT 1
1 36799U 10035E   19341.73452012 +.00000399 +00000-0 +46228-4 0  9992
2 36799 098.1744 139.8432 0011237 238.7484 121.2633 14.91220328510207
JUGNU
1 37839U 11058B   19342.43217771  .00000302  00000-0  19040-4 0  9999
2 37839  19.9626   7.2465 0019166  71.5890 316.7233 14.12666328421711
SRMSAT
1 37841U 11058D   19341.59758275 +.00000296 +00000-0 +17213-4 0  9999
2 37841 019.9725 072.6368 0011746 285.7803 102.2532 14.10644846420900
M-CUBED/EXP-1 PRIME
1 37855U 11061F   19341.91730529 +.00001161 +00000-0 +65532-4 0  9995
2 37855 101.7249 326.0228 0172232 286.1880 072.0439 15.05859638442226
HORYU 2
1 38340U 12025D   19342.40504019  .00000158  00000-0  31117-4 0  9991
2 38340  98.3092  25.9931 0010319 296.1909  63.8238 14.75784364406638
STRAND 1
1 39090U 13009E   19342.48708752  .00000052  00000-0  33407-4 0  9992
2 39090  98.4696 185.4100 0009934 130.9414 229.2633 14.35108867355172
SOMP
1 39134U 13015E   19341.90058371 +.00000902 +00000-0 +49803-4 0  9990
2 39134 064.8615 182.3612 0037646 275.6223 084.0612 15.20555358366395
BEESAT 3
1 39135U 13015F   19341.93428757 +.00000499 +00000-0 +34162-4 0  9996
2 39135 064.8654 202.9997 0042065 278.4644 081.1716 15.17776356365990
BEESAT 2
1 39136U 13015G   19342.36674141  .00000715  00000-0  45494-4 0  9996
2 39136  64.8688 205.9391 0030614 284.1018  75.6706 15.17197351366366
CUBEBUG 1
1 39153U 13018D   19342.23105762  .00000155  00000-0  27123-4 0  9999
2 39153  97.9822  79.4260 0016844   4.1626 355.9723 14.80635517357346
ZACUBE
1 39417U 13066B   19341.90708079 +.00000170 +00000-0 +27669-4 0  9990
2 39417 097.5613 345.7214 0058690 187.9120 172.1173 14.81188710326539
TRITON 1
1 39427U 13066M   19342.53107767  .00000138  00000-0  30147-4 0  9997
2 39427  97.6993 309.4414 0113168 332.8396  26.6917 14.67916567323695
GOMX 1
1 39430U 13066Q   19342.41429061  .00000205  00000-0  45721-4 0  9991
2 39430  97.7696 287.7833 0152414  69.7935 291.9583 14.59319777321791
HUMSAT D
1 39433U 13066T   19342.41359479  .00000401  00000-0  44150-4 0  9992
2 39433  97.5330  22.6683 0032203  84.8257 275.6637 14.92321111328837
CUBEBUG 2
1 39440U 13066AA  19341.88837062 +.00000150 +00000-0 +27949-4 0  9997
2 39440 097.6136 330.2625 0078849 245.2075 114.0918 14.75927289324171
FUNCUBE 1
1 39444U 13066AE  19341.67678836  .00000236  00000-0  35198-4 0  9990
2 39444  97.5577 347.6052 0057975 181.7528 178.3491 14.82022738325402
UWE-3
1 39446U 13066AG  19341.93606096 +.00000167 +00000-0 +28884-4 0  9997
2 39446 097.5869 337.4766 0069066 217.0533 142.5899 14.78461226324127
SPROUT
1 39770U 14029E   19342.31767420  .00000415  00000-0  51847-4 0  9990
2 39770  97.8911  84.5763 0007958 235.2674 124.7794 14.87530290300493
UNISAT 6
1 40012U 14033C   19341.89621889  .00000144  00000-0  28880-4 0  9996
2 40012  97.7319 200.8620 0056926 262.0962  97.3784 14.74041454294050
DUCHIFAT 1
1 40021U 14033M   19342.52407114  .00000264  00000-0  32770-4 0  9996
2 40021  97.9314 267.7322 0012292 194.5073 165.5794 14.90756437297298
QB50P1
1 40025U 14033R   19341.86969899 +.00000229 +00000-0 +30272-4 0  9995
2 40025 097.9090 261.2761 0011636 207.7922 152.2675 14.89033360296437
CHUBUSAT 1
1 40300U 14070C   19342.47078492  .00000358  00000-0  18454-4 0  9991
2 40300  97.3133  52.1455 0020094 164.1886 206.6686 15.22278168282307
NUDT-PHONESAT
1 40900U 15049B   19342.57140007  .00001628  00000-0  71413-4 0  9992
2 40900  97.4361 350.2542 0011333 302.4700 176.0587 15.23366844233973
ZDPS 2A
1 40901U 15049C   19342.40461918  .00000823  00000-0  43808-4 0  9995
2 40901  97.4620 345.7701 0012797 329.2059 138.5127 15.17968296233433
ZDPS 2B
1 40902U 15049D   19342.45597184  .00000904  00000-0  47894-4 0  9995
2 40902  97.4571 343.1809 0012670 325.4632 192.5273 15.17868860233411
XW-2A
1 40903U 15049E   19342.44302266  .00001384  00000-0  33981-4 0  9995
2 40903  97.3169  26.0200 0011835 236.0939 181.2270 15.42397402236877
KAITUO 1A
1 40904U 15049F   19342.40419330  .00000639  00000-0  37147-4 0  9993
2 40904  97.4724 341.5184 0013957 335.8247 133.9006 15.15529720233158
OBJECT G
1 40905U 15049G   19342.40979978  .00000360  00000-0  23146-4 0  9998
2 40905  97.4781 338.8995 0014948 330.7324 135.2481 15.14409268233012
XW-2C
1 40906U 15049H   19342.44421315  .00000330  00000-0  20733-4 0  9996
2 40906  97.4725 341.7236 0014041 325.9085 194.0268 15.15850173233164
XW-2D
1 40907U 15049J   19342.39010953  .00000696  00000-0  39612-4 0  9994
2 40907  97.4711 341.3559 0013230 323.4754 144.2218 15.16057632233172
LILACSAT 2
1 40908U 15049K   19342.45408412  .00000180  00000-0  13573-4 0  9999
2 40908  97.4848 340.0362 0015258 331.0753 185.3595 15.13908009232946
XW-2F
1 40910U 15049M   19342.52365885  .00000726  00000-0  39463-4 0  9998
2 40910  97.4657 343.7582 0013702 313.6124 204.2581 15.17579935233225
XW-2B
1 40911U 15049N   19342.36474205  .00000396  00000-0  24056-4 0  9993
2 40911  97.4721 342.0078 0013250 324.6539 142.5838 15.15983651233063
KAITUO 1B
1 40912U 15049P   19342.41336171  .00001016  00000-0  50431-4 0  9995
2 40912  97.4501 347.5613 0013375 293.1672 177.4504 15.19928844233548
TIANWANG 1C (TW-1C)
1 40926U 15051B   19342.49731831  .00011060  00000-0  14064-3 0  9994
2 40926  97.1144  28.6283 0008950  89.4850  20.1484 15.59496331237056
